[[{"header":{"parameterUnit":"m.s-1","parameterCategory":1,"la1":30.2991,"la2":30.254,"lo1":-89.0895,"lo2":-89.0444,"dy":0.0017,"dx":0.0017,"nx":28,"ny":28,"refTime":"2025-05-22T03:00:00:Z","depth":0,"parameterNumber":2,"parameterNumberName":"U-component_of_WINDS"},"data":[0,0,0,0,0,0,0,0,0,0,0,0,0,0,0,0,0,0,0,0,0,0,0,0,0,0,0,0,0,0,0,0,0,0,0,0,0,0,0,0,0,0,0,0,0,0,0,0,0,0,0,0,0,0,0,0,0,0,1.6592,1.6592,0,1.6645,1.6645,1.6646,1.6631,1.663,1.6629,1.6628,1.6684,1.6687,1.6689,0,0,0,0,0,0,0,0,0,0,0,0,0,1.648,1.6482,1.6591,1.6592,1.6593,1.6645,1.6645,1.6646,1.6632,1.663,1.6629,1.6628,1.6683,1.6686,1.6689,0,0,0,0,0,0,0,0,0,0,0,0,0,1.653,1.6483,1.6591,1.6592,1.6592,1.6645,1.6645,1.6646,1.6632,1.663,1.6629,1.6627,1.6682,1.6686,1.669,1.6745,0,0,1.6701,1.6703,0,0,0,0,0,0,0,0,1.6528,1.6535,1.6591,1.6592,1.6593,1.663,1.6627,1.668,1.6632,1.6617,1.6628,1.6626,1.6668,1.6672,1.6686,1.6748,1.675,1.6702,1.6704,1.6705,1.6707,0,0,0,0,0,0,0,1.6524,1.6532,1.6613,1.6592,1.6593,1.659,1.6596,1.6637,1.6651,1.6618,1.6617,1.6624,1.6668,1.6682,1.6687,1.6751,1.6701,1.6705,1.6707,1.6709,1.6863,1.6865,0,0,0,0,0,0,1.652,1.6529,1.6611,1.6614,1.6555,1.6594,1.66,1.662,1.665,1.6653,1.6625,1.6623,1.6677,1.6683,1.6689,1.6757,1.6705,1.6709,1.6711,1.6861,1.6863,1.6865,0,0,0,0,0,0,1.6517,1.6527,1.6609,1.6572,1.6582,1.6597,1.662,1.6621,1.6636,1.6655,1.6658,1.6637,1.6676,1.6684,1.6732,1.6758,1.6711,1.6714,1.6859,1.6862,1.6864,1.6892,0,0,0,0,0,0,1.6514,1.6526,1.6547,1.6572,1.6584,1.665,1.6621,1.6624,1.6642,1.664,1.6668,1.6671,1.6675,1.6726,1.6735,1.6763,1.6717,1.6856,1.686,1.6863,1.6889,1.6895,1.6901,0,0,0,0,0,1.651,1.6552,1.6548,1.6558,1.6609,1.6651,1.6658,1.6662,1.6645,1.6666,1.6679,1.667,1.6754,1.6731,1.6741,1.677,1.6855,1.6859,1.6863,1.6886,1.6894,1.6901,0,0,0,0,0,0,1.653,1.6556,1.6551,1.6602,1.6625,1.6649,1.6675,1.667,1.6698,1.6695,1.6699,1.6705,1.6754,1.6767,1.6741,1.6826,1.6802,1.6809,1.6816,1.6824,1.683,1.6826,1.672,0,0,0,0,0,1.654,1.6571,1.6592,1.6636,1.6647,1.6659,1.6678,1.6679,1.6702,1.6712,1.6728,1.6752,1.6784,1.6805,1.6835,1.6891,1.6897,1.6916,1.6922,1.6927,1.6933,1.6964,1.6973,1.6879,1.6879,1.6879,0,0,1.6561,1.658,1.6599,1.664,1.6657,1.669,1.6667,1.6703,1.6727,1.6717,1.6763,1.6776,1.6803,1.6856,1.6879,1.6868,1.696,1.6932,1.6936,1.6939,1.697,1.6978,1.6986,1.6882,1.6881,1.6881,0,0,1.6617,1.6634,1.6672,1.6691,1.6717,1.6726,1.6735,1.676,1.6768,1.6815,1.6808,1.6838,1.6893,1.6913,1.693,1.6996,1.6989,1.7006,1.7038,1.7069,1.7076,1.7083,1.7107,1.7115,1.7011,1.7011,1.7011,0,1.664,1.6689,1.6693,1.6729,1.6748,1.6741,1.6781,1.6798,1.6834,1.6848,1.6834,1.6904,1.6921,1.6979,1.6995,1.7009,1.7021,1.7002,1.7075,1.7081,1.7088,1.7111,1.712,1.7013,1.7013,1.7013,1.7013,0,1.6717,1.6751,1.6779,1.6814,1.6836,1.6874,1.6884,1.6906,1.6907,1.6917,1.6965,1.6986,1.7021,1.7035,1.7035,1.7093,1.7085,1.7073,1.7049,1.7098,1.712,1.7129,1.7016,1.7015,1.7015,1.7014,0,0,1.6785,1.6822,1.6832,1.6849,1.6879,1.6906,1.6944,1.6978,1.6998,1.7023,1.7056,1.7104,1.7093,1.7113,1.7116,1.7143,1.7195,1.7128,1.7129,1.714,1.7261,1.727,1.728,1.7191,1.7193,1.7194,1.7259,0,1.6843,1.691,1.6916,1.6976,1.7008,1.7003,1.7037,1.706,1.7071,1.71,1.7113,1.7146,1.713,1.7142,1.7169,1.7183,1.7219,1.7178,1.7222,1.7224,1.7215,1.7291,1.73,1.736,1.7267,1.7269,1.727,0,1.692,1.6948,1.7012,1.7039,1.7053,1.7083,1.7115,1.7144,1.717,1.7176,1.7199,1.7199,1.724,1.7214,1.7271,1.7243,1.7262,1.7272,1.7274,1.7278,1.7249,1.7297,1.7379,1.7388,1.7283,1.7282,1.7281,0,1.6964,1.7018,1.7063,1.7077,1.711,1.7131,1.7146,1.7171,1.7191,1.7221,1.7234,1.7268,1.7286,1.7313,1.7322,1.7303,1.7379,1.7354,1.7386,1.7386,1.7401,1.74,1.7487,1.7414,1.7414,1.7414,1.7413,0,1.7028,1.7068,1.7083,1.7111,1.7156,1.7162,1.7206,1.722,1.7243,1.7274,1.7272,1.7301,1.7312,1.7344,1.7351,1.7398,1.7406,1.7413,1.7414,1.7413,1.7412,1.7424,1.7421,1.7416,1.7415,1.7415,1.7415,0,1.7084,1.7096,1.7145,1.7172,1.718,1.7212,1.7236,1.7263,1.7275,1.7314,1.7324,1.7342,1.7379,1.7391,1.7437,1.7442,1.7496,1.7494,1.7487,1.7487,1.7518,1.7515,1.7617,1.763,1.7548,1.7549,1.7549,0,1.7124,1.7154,1.7185,1.7206,1.7222,1.7255,1.7277,1.7285,1.7308,1.7341,1.7365,1.7402,1.7432,1.7493,1.751,1.7545,1.7544,1.7577,1.7549,1.7547,1.7544,1.7542,1.7546,1.7582,1.7583,1.7583,1.7584,0,1.7194,1.7199,1.723,1.7264,1.7289,1.7316,1.7342,1.7359,1.7372,1.7398,1.7436,1.746,1.7506,1.7543,1.7579,1.7595,1.7592,1.7593,1.7602,1.7601,1.7595,1.7599,1.7501,1.759,1.759,1.7589,1.7589,1.7589,1.7243,1.7271,1.7297,1.7332,1.7353,1.7377,1.7405,1.742,1.7452,1.749,1.7494,1.7536,1.7563,1.7611,1.7629,1.7663,1.7653,1.7666,1.767,1.7673,1.7675,1.7591,1.7669,1.7669,1.7669,1.7669,1.7669,0,1.7314,1.7331,1.7363,1.74,1.7428,1.7423,1.7452,1.7475,1.7512,1.7538,1.7568,1.7612,1.7649,1.767,1.7707,1.773,1.7729,1.7739,1.7737,1.7741,1.7681,1.767,1.7739,1.7739,1.7739,1.7739,1.7739,1.7739,1.7353,1.7399,1.7408,1.7465,1.7482,1.7522,1.7539,1.7563,1.7584,1.7634,1.7664,1.7677,1.7702,1.7741,1.7774,1.778,1.7794,1.7804,1.7809,1.7752,1.7745,1.7738,1.7727,1.7807,1.7807,1.7866,1.7866,1.7867]},{"header":{"parameterUnit":"m.s-1","parameterCategory":1,"la1":30.2991,"la2":30.254,"lo1":-89.0895,"lo2":-89.0444,"dy":0.0017,"dx":0.0017,"nx":28,"ny":28,"refTime":"2025-05-22T03:00:00:Z","depth":0,"parameterNumber":3,"parameterNumberName":"V-component_of_WINDS"},"data":[0,0,0,0,0,0,0,0,0,0,0,0,0,0,0,0,0,0,0,0,0,0,0,0,0,0,0,0,0,0,0,0,0,0,0,0,0,0,0,0,0,0,0,0,0,0,0,0,0,0,0,0,0,0,0,0,0,0,-0.0086,-0.0087,0,-0.0154,-0.0155,-0.0155,-0.0162,-0.0161,-0.0161,-0.016,-0.0231,-0.0233,-0.0236,0,0,0,0,0,0,0,0,0,0,0,0,0,0.0037,0.0035,-0.0086,-0.0087,-0.0088,-0.0154,-0.0155,-0.0156,-0.0162,-0.0161,-0.0161,-0.016,-0.023,-0.0233,-0.0236,0,0,0,0,0,0,0,0,0,0,0,0,0,-0.0022,0.0034,-0.0086,-0.0099,-0.0101,-0.0154,-0.0155,-0.0156,-0.0162,-0.0161,-0.016,-0.0159,-0.0229,-0.0233,-0.0236,-0.0281,0,0,-0.0248,-0.025,0,0,0,0,0,0,0,0,-0.0019,-0.0027,-0.0096,-0.0098,-0.01,-0.0148,-0.0137,-0.0198,-0.0163,-0.0139,-0.016,-0.0159,-0.0204,-0.021,-0.0225,-0.0284,-0.0287,-0.0248,-0.0251,-0.0252,-0.0253,0,0,0,0,0,0,0,-0.0015,-0.0024,-0.0113,-0.0097,-0.01,-0.0102,-0.0109,-0.0149,-0.0177,-0.0141,-0.0142,-0.015,-0.0205,-0.0221,-0.0227,-0.0288,-0.0248,-0.0252,-0.0254,-0.0255,-0.0389,-0.039,0,0,0,0,0,0,-0.0008,-0.002,-0.0111,-0.0115,-0.0056,-0.0105,-0.0113,-0.0134,-0.0176,-0.0182,-0.015,-0.015,-0.0215,-0.0222,-0.0229,-0.0286,-0.0252,-0.0256,-0.0258,-0.0388,-0.0389,-0.039,0,0,0,0,0,0,-0.0005,-0.0016,-0.0108,-0.0068,-0.008,-0.0108,-0.0132,-0.0136,-0.0152,-0.0183,-0.0189,-0.0162,-0.0215,-0.0224,-0.0268,-0.0288,-0.0257,-0.0261,-0.0386,-0.0388,-0.039,-0.0398,0,0,0,0,0,0,-0.0002,-0.0015,-0.0032,-0.0068,-0.0082,-0.0146,-0.0133,-0.0138,-0.0159,-0.0158,-0.0196,-0.0201,-0.0215,-0.0263,-0.0272,-0.0293,-0.0264,-0.0384,-0.0387,-0.0389,-0.0396,-0.04,-0.0403,0,0,0,0,0,0.0003,-0.0032,-0.0033,-0.0044,-0.0104,-0.0147,-0.0155,-0.017,-0.016,-0.0178,-0.0198,-0.02,-0.0284,-0.0267,-0.0278,-0.03,-0.0383,-0.0386,-0.0389,-0.0395,-0.0399,-0.0403,0,0,0,0,0,0,0.0002,-0.0037,-0.0038,-0.0085,-0.0113,-0.0148,-0.0171,-0.0174,-0.0205,-0.0203,-0.0221,-0.0229,-0.0273,-0.0291,-0.0271,-0.0346,-0.0333,-0.0338,-0.0333,-0.0338,-0.0342,-0.0337,-0.0267,0,0,0,0,0,-0.0003,-0.0034,-0.0067,-0.0105,-0.0119,-0.0142,-0.0161,-0.0171,-0.02,-0.0212,-0.0235,-0.0263,-0.0296,-0.0318,-0.035,-0.0398,-0.0407,-0.0419,-0.0422,-0.0425,-0.043,-0.0458,-0.0464,-0.04,-0.04,-0.04,0,0,-0.0015,-0.004,-0.0059,-0.0106,-0.0128,-0.0161,-0.0152,-0.0187,-0.0211,-0.0217,-0.0261,-0.0279,-0.0311,-0.0358,-0.038,-0.0374,-0.0449,-0.0429,-0.0431,-0.0434,-0.0462,-0.0468,-0.0473,-0.0402,-0.0401,-0.0401,0,0,-0.0054,-0.0075,-0.011,-0.0132,-0.0166,-0.0181,-0.019,-0.0224,-0.0236,-0.028,-0.0285,-0.0315,-0.0371,-0.0395,-0.0414,-0.0461,-0.0464,-0.0471,-0.0491,-0.0518,-0.0523,-0.0527,-0.0546,-0.0552,-0.0475,-0.0475,-0.0475,0,-0.0064,-0.0114,-0.0128,-0.0163,-0.0184,-0.0189,-0.0226,-0.0246,-0.0289,-0.0304,-0.0296,-0.0367,-0.039,-0.0443,-0.0454,-0.0469,-0.048,-0.0468,-0.0521,-0.0526,-0.053,-0.0548,-0.0555,-0.0476,-0.0476,-0.0476,-0.0476,0,-0.0126,-0.016,-0.0184,-0.0225,-0.0248,-0.0284,-0.0304,-0.0326,-0.0332,-0.0349,-0.0394,-0.0421,-0.0459,-0.0472,-0.0479,-0.0526,-0.0522,-0.0517,-0.0505,-0.0537,-0.0554,-0.0561,-0.0477,-0.0477,-0.0477,-0.0477,0,0,-0.0169,-0.0216,-0.0225,-0.0244,-0.0281,-0.0308,-0.0344,-0.0381,-0.04,-0.0428,-0.046,-0.0507,-0.0503,-0.0525,-0.0535,-0.0558,-0.0596,-0.0551,-0.0552,-0.056,-0.0652,-0.0656,-0.0664,-0.0597,-0.0598,-0.0599,-0.0649,0,-0.0213,-0.0277,-0.029,-0.0345,-0.0378,-0.0383,-0.0414,-0.0441,-0.0457,-0.0487,-0.0504,-0.0538,-0.0529,-0.0543,-0.0566,-0.0586,-0.0615,-0.0583,-0.0628,-0.0629,-0.0622,-0.0673,-0.0678,-0.0724,-0.0656,-0.0657,-0.0658,0,-0.0274,-0.0304,-0.0363,-0.0396,-0.041,-0.0438,-0.0473,-0.0501,-0.0532,-0.0541,-0.0566,-0.0573,-0.0611,-0.0594,-0.0647,-0.0625,-0.0644,-0.0656,-0.0659,-0.0665,-0.0647,-0.0683,-0.0738,-0.0746,-0.0668,-0.0667,-0.0667,0,-0.0302,-0.0357,-0.0399,-0.0415,-0.0455,-0.0474,-0.0492,-0.0521,-0.0542,-0.0573,-0.0587,-0.0622,-0.0641,-0.0668,-0.0684,-0.0671,-0.0736,-0.0721,-0.0747,-0.0747,-0.0763,-0.0762,-0.0824,-0.0771,-0.0771,-0.0771,-0.077,0,-0.0351,-0.0387,-0.0412,-0.0439,-0.0479,-0.0494,-0.0534,-0.0551,-0.0577,-0.0607,-0.0613,-0.0642,-0.066,-0.0692,-0.0704,-0.0747,-0.0755,-0.0765,-0.0769,-0.0766,-0.0765,-0.078,-0.0779,-0.0772,-0.0772,-0.0772,-0.0771,0,-0.039,-0.0408,-0.0455,-0.0488,-0.0497,-0.0526,-0.0555,-0.0581,-0.0596,-0.0635,-0.0644,-0.0669,-0.0706,-0.0724,-0.077,-0.0778,-0.0828,-0.0828,-0.0818,-0.0819,-0.0845,-0.0843,-0.0921,-0.0933,-0.087,-0.087,-0.0871,0,-0.0422,-0.045,-0.0486,-0.0507,-0.0525,-0.0557,-0.0579,-0.0595,-0.0618,-0.0654,-0.0676,-0.0713,-0.0744,-0.0802,-0.0825,-0.086,-0.0862,-0.0887,-0.0868,-0.0865,-0.0865,-0.0864,-0.0868,-0.0891,-0.0892,-0.0893,-0.0893,0,-0.0477,-0.0484,-0.0516,-0.055,-0.0576,-0.0604,-0.0632,-0.0648,-0.0668,-0.0694,-0.0731,-0.0755,-0.0802,-0.0839,-0.0876,-0.0894,-0.0898,-0.0898,-0.0907,-0.0906,-0.09,-0.0905,-0.083,-0.0897,-0.0897,-0.0896,-0.0896,-0.0896,-0.0515,-0.054,-0.057,-0.0605,-0.0627,-0.0653,-0.0679,-0.0698,-0.0729,-0.0769,-0.0775,-0.0816,-0.0845,-0.0895,-0.0915,-0.0947,-0.0941,-0.0953,-0.0956,-0.0959,-0.0962,-0.0892,-0.0953,-0.0953,-0.0953,-0.0953,-0.0953,0,-0.0572,-0.0591,-0.0623,-0.0661,-0.0689,-0.0688,-0.0719,-0.0742,-0.0778,-0.0805,-0.0835,-0.0879,-0.0915,-0.0939,-0.0976,-0.0997,-0.1,-0.1006,-0.1006,-0.1011,-0.0963,-0.0954,-0.1004,-0.1004,-0.1004,-0.1004,-0.1004,-0.1004,-0.0605,-0.0649,-0.0659,-0.0714,-0.0733,-0.0773,-0.0791,-0.0815,-0.0837,-0.0885,-0.0915,-0.093,-0.0957,-0.0995,-0.1029,-0.1035,-0.1049,-0.1056,-0.1063,-0.1019,-0.1014,-0.1009,-0.1,-0.1059,-0.1059,-0.1108,-0.1108,-0.1109]}]]